Location: Litvinovka
(48.6667°N, 34.3500°E)
Time: 03:37:54
(UTC+00:00)

ATLAS 3B R/B - Pass Details

Date: 18 September 2020
Orbit: 1016 x 1179 km, 63.8° (Epoch: 04 October)

Event Time Altitude Azimuth Distance (km) Brightness Sun altitude
Rises 19:34:19 0° 318° (NW) 3,830 6.7 -33.3°
Reaches altitude 10° 19:36:55 10° 317° (NW) 2,893 5.8 -33.6°
Enters shadow 19:42:49 66° 289° (WNW) 1,183 2.9 -34.2°
